[[{"header":{"parameterUnit":"m.s-1","parameterCategory":1,"la1":30.2991,"la2":30.254,"lo1":-89.0895,"lo2":-89.0444,"dy":0.0017,"dx":0.0017,"nx":28,"ny":28,"refTime":"2023-10-23T09:00:00:Z","depth":0,"parameterNumber":2,"parameterNumberName":"U-component_of_WINDS"},"data":[0,0,0,0,0,0,0,0,0,0,0,0,0,0,0,0,0,0,0,0,0,0,0,0,0,0,0,0,0,0,0,0,0,0,0,0,0,0,0,0,0,0,0,0,0,0,0,0,0,0,0,0,0,0,0,0,0,0,-2.3468,-2.3468,0,-2.3504,-2.3505,-2.3505,-2.3486,-2.3485,-2.3484,-2.3483,-2.3522,-2.3524,-2.3526,0,0,0,0,0,0,0,0,0,0,0,0,0,-2.3386,-2.3388,-2.3468,-2.3468,-2.3469,-2.3504,-2.3505,-2.3505,-2.3486,-2.3485,-2.3484,-2.3483,-2.3521,-2.3524,-2.3526,0,0,0,0,0,0,0,0,0,0,0,0,0,-2.3422,-2.3388,-2.3467,-2.3463,-2.3463,-2.3504,-2.3505,-2.3505,-2.3486,-2.3485,-2.3483,-2.3482,-2.3521,-2.3523,-2.3526,-2.3574,0,0,-2.3535,-2.3536,0,0,0,0,0,0,0,0,-2.342,-2.3425,-2.3463,-2.3464,-2.3464,-2.3489,-2.349,-2.3528,-2.3487,-2.3478,-2.3483,-2.3481,-2.3512,-2.3516,-2.3526,-2.3576,-2.3577,-2.3535,-2.3537,-2.3538,-2.3539,0,0,0,0,0,0,0,-2.3417,-2.3423,-2.3482,-2.3464,-2.3464,-2.3461,-2.3465,-2.3497,-2.3503,-2.3478,-2.3477,-2.3482,-2.3512,-2.3523,-2.3527,-2.3578,-2.3535,-2.3538,-2.354,-2.3541,-2.3673,-2.3674,0,0,0,0,0,0,-2.3415,-2.3421,-2.3481,-2.3483,-2.3438,-2.3464,-2.3468,-2.3482,-2.3502,-2.3504,-2.3483,-2.3481,-2.3519,-2.3523,-2.3528,-2.3587,-2.3538,-2.3541,-2.3543,-2.3671,-2.3673,-2.3675,0,0,0,0,0,0,-2.3413,-2.342,-2.3479,-2.3452,-2.3459,-2.3467,-2.3483,-2.3484,-2.3495,-2.3506,-2.3507,-2.3493,-2.3518,-2.3524,-2.3563,-2.3588,-2.3542,-2.3545,-2.3669,-2.3672,-2.3674,-2.3703,0,0,0,0,0,0,-2.3411,-2.342,-2.3436,-2.3452,-2.3461,-2.3513,-2.3485,-2.3486,-2.35,-2.3497,-2.3515,-2.3517,-2.3517,-2.3559,-2.3566,-2.3591,-2.3547,-2.3667,-2.367,-2.3673,-2.37,-2.3706,-2.3712,0,0,0,0,0,-2.3408,-2.3442,-2.3437,-2.3444,-2.3481,-2.3514,-2.3519,-2.3518,-2.3502,-2.3519,-2.3528,-2.3516,-2.3585,-2.3563,-2.3571,-2.3597,-2.3665,-2.3669,-2.3673,-2.3697,-2.3705,-2.3712,0,0,0,0,0,0,-2.3428,-2.3444,-2.3438,-2.3479,-2.3495,-2.3511,-2.3532,-2.3526,-2.3547,-2.3544,-2.3543,-2.3547,-2.3589,-2.3597,-2.3573,-2.3646,-2.3623,-2.3628,-2.3638,-2.3646,-2.3652,-2.3648,-2.355,0,0,0,0,0,-2.3437,-2.3461,-2.3475,-2.3509,-2.3518,-2.3524,-2.3538,-2.3537,-2.3554,-2.356,-2.3571,-2.3589,-2.3615,-2.3631,-2.3655,-2.3703,-2.3707,-2.3725,-2.3731,-2.3736,-2.374,-2.3769,-2.3777,-2.3688,-2.3688,-2.3688,0,0,-2.3456,-2.3468,-2.3483,-2.3514,-2.3526,-2.3553,-2.353,-2.3558,-2.3578,-2.3565,-2.3602,-2.3612,-2.3632,-2.3676,-2.3696,-2.3685,-2.3767,-2.3741,-2.3744,-2.3746,-2.3774,-2.3782,-2.379,-2.3691,-2.369,-2.369,0,0,-2.3503,-2.3515,-2.3546,-2.356,-2.3579,-2.3584,-2.3592,-2.361,-2.3615,-2.3654,-2.3646,-2.3671,-2.3714,-2.373,-2.3744,-2.3804,-2.3795,-2.3812,-2.3842,-2.387,-2.3877,-2.3884,-2.3906,-2.3914,-2.3817,-2.3817,-2.3817,0,-2.3524,-2.3562,-2.3562,-2.3592,-2.3607,-2.3599,-2.3631,-2.3645,-2.3672,-2.3684,-2.3671,-2.3728,-2.3741,-2.379,-2.3805,-2.3816,-2.3827,-2.3808,-2.3876,-2.3883,-2.3888,-2.391,-2.3918,-2.3819,-2.3819,-2.3818,-2.3818,0,-2.3588,-2.3615,-2.3638,-2.3665,-2.3683,-2.3714,-2.3722,-2.374,-2.3739,-2.3746,-2.3788,-2.3804,-2.3833,-2.3845,-2.3843,-2.3895,-2.3888,-2.3876,-2.3852,-2.3899,-2.3919,-2.3927,-2.3822,-2.3821,-2.382,-2.382,0,0,-2.3644,-2.3674,-2.3683,-2.3696,-2.372,-2.3742,-2.3775,-2.3804,-2.3821,-2.3842,-2.387,-2.391,-2.3901,-2.3916,-2.3917,-2.3942,-2.3991,-2.3928,-2.3928,-2.3939,-2.4052,-2.406,-2.4069,-2.3987,-2.3989,-2.399,-2.4051,0,-2.3693,-2.3749,-2.3753,-2.3804,-2.3831,-2.3826,-2.3855,-2.3875,-2.3884,-2.391,-2.392,-2.3949,-2.3933,-2.3943,-2.3968,-2.398,-2.4014,-2.3976,-2.4015,-2.4016,-2.4008,-2.408,-2.4087,-2.4143,-2.4059,-2.406,-2.4061,0,-2.3756,-2.378,-2.3834,-2.3858,-2.3869,-2.3895,-2.3924,-2.3948,-2.3972,-2.3977,-2.3998,-2.3996,-2.4033,-2.401,-2.4062,-2.4036,-2.4054,-2.4063,-2.4065,-2.4067,-2.404,-2.4083,-2.4161,-2.4169,-2.4073,-2.4072,-2.4071,0,-2.3792,-2.3838,-2.3877,-2.3889,-2.3918,-2.3937,-2.395,-2.3972,-2.399,-2.4016,-2.4029,-2.4059,-2.4075,-2.41,-2.4109,-2.4091,-2.4161,-2.4138,-2.4167,-2.4167,-2.418,-2.4179,-2.4261,-2.4193,-2.4193,-2.4193,-2.4193,0,-2.3846,-2.3879,-2.3894,-2.3918,-2.3957,-2.3963,-2.4002,-2.4014,-2.4035,-2.4063,-2.4062,-2.4089,-2.4099,-2.4128,-2.4136,-2.4179,-2.4186,-2.4193,-2.4194,-2.4192,-2.4191,-2.4201,-2.4197,-2.4195,-2.4195,-2.4194,-2.4194,0,-2.389,-2.3902,-2.3944,-2.3969,-2.3977,-2.4004,-2.4027,-2.4052,-2.4063,-2.4098,-2.4107,-2.4125,-2.416,-2.4172,-2.4214,-2.4219,-2.4269,-2.4268,-2.4261,-2.4261,-2.429,-2.4287,-2.438,-2.4393,-2.4318,-2.4319,-2.4319,0,-2.3922,-2.3948,-2.3978,-2.3996,-2.401,-2.404,-2.406,-2.407,-2.409,-2.4122,-2.4144,-2.4179,-2.4206,-2.4263,-2.4281,-2.4314,-2.4313,-2.4344,-2.4318,-2.4316,-2.4314,-2.4311,-2.4315,-2.4347,-2.4348,-2.4349,-2.4349,0,-2.3979,-2.3985,-2.4012,-2.4043,-2.4067,-2.4092,-2.4116,-2.4132,-2.4146,-2.417,-2.4206,-2.4228,-2.4273,-2.4308,-2.4344,-2.4359,-2.4358,-2.4358,-2.4367,-2.4364,-2.4359,-2.4363,-2.4273,-2.4355,-2.4355,-2.4354,-2.4354,-2.4354,-2.4018,-2.4042,-2.4068,-2.41,-2.412,-2.4144,-2.4169,-2.4185,-2.4214,-2.4251,-2.4256,-2.4296,-2.4324,-2.4371,-2.4389,-2.4421,-2.4413,-2.4425,-2.4428,-2.4431,-2.4433,-2.4356,-2.4428,-2.4428,-2.4428,-2.4428,-2.4427,0,-2.4075,-2.4092,-2.4122,-2.4157,-2.4183,-2.4181,-2.4209,-2.4231,-2.4266,-2.4292,-2.4321,-2.4364,-2.44,-2.4423,-2.4459,-2.4481,-2.4482,-2.4491,-2.4488,-2.4493,-2.4438,-2.4427,-2.449,-2.449,-2.449,-2.449,-2.449,-2.449,-2.4107,-2.4148,-2.4158,-2.421,-2.4228,-2.4266,-2.4283,-2.4306,-2.4327,-2.4376,-2.4406,-2.4421,-2.4447,-2.4486,-2.452,-2.4526,-2.454,-2.4549,-2.4555,-2.4503,-2.4496,-2.449,-2.4479,-2.4552,-2.4553,-2.4606,-2.4607,-2.4607]},{"header":{"parameterUnit":"m.s-1","parameterCategory":1,"la1":30.2991,"la2":30.254,"lo1":-89.0895,"lo2":-89.0444,"dy":0.0017,"dx":0.0017,"nx":28,"ny":28,"refTime":"2023-10-23T09:00:00:Z","depth":0,"parameterNumber":3,"parameterNumberName":"V-component_of_WINDS"},"data":[0,0,0,0,0,0,0,0,0,0,0,0,0,0,0,0,0,0,0,0,0,0,0,0,0,0,0,0,0,0,0,0,0,0,0,0,0,0,0,0,0,0,0,0,0,0,0,0,0,0,0,0,0,0,0,0,0,0,2.2323,2.2323,0,2.2347,2.2347,2.2348,2.2421,2.2423,2.2424,2.2426,2.2444,2.2443,2.2442,0,0,0,0,0,0,0,0,0,0,0,0,0,2.2336,2.2335,2.2323,2.2323,2.2324,2.2347,2.2347,2.2348,2.2421,2.2423,2.2425,2.2426,2.2444,2.2443,2.2442,0,0,0,0,0,0,0,0,0,0,0,0,0,2.2342,2.2335,2.2323,2.2363,2.2367,2.2347,2.2348,2.2348,2.242,2.2423,2.2425,2.2427,2.2445,2.2443,2.2441,2.2383,0,0,2.2437,2.2436,0,0,0,0,0,0,0,0,2.2341,2.2341,2.2357,2.236,2.2365,2.2384,2.2359,2.2359,2.242,2.24,2.2426,2.2429,2.2421,2.2422,2.2421,2.2384,2.2384,2.2437,2.2436,2.2435,2.2434,0,0,0,0,0,0,0,2.2341,2.2341,2.2332,2.2357,2.2362,2.2378,2.2382,2.2359,2.2396,2.2402,2.2407,2.2409,2.2424,2.2422,2.2422,2.2385,2.2437,2.2435,2.2434,2.2434,2.2302,2.23,0,0,0,0,0,0,2.2335,2.234,2.2332,2.2333,2.2359,2.2376,2.238,2.2375,2.2397,2.2403,2.2407,2.2413,2.2424,2.2423,2.2423,2.2356,2.2435,2.2433,2.2433,2.2305,2.2302,2.2299,0,0,0,0,0,0,2.2335,2.2334,2.2331,2.2338,2.2339,2.2373,2.2367,2.2374,2.2373,2.2401,2.2408,2.2399,2.2426,2.2425,2.2393,2.2358,2.2433,2.2431,2.2308,2.2304,2.23,2.2222,0,0,0,0,0,0,2.2336,2.2334,2.2313,2.2337,2.2338,2.2302,2.2365,2.2373,2.237,2.2378,2.2395,2.24,2.2427,2.2395,2.2391,2.2357,2.243,2.2311,2.2306,2.2301,2.2228,2.2216,2.2206,0,0,0,0,0,2.2336,2.2288,2.2311,2.231,2.2313,2.23,2.23,2.2334,2.2367,2.2346,2.2365,2.2399,2.2363,2.2391,2.2388,2.2352,2.2313,2.2307,2.2302,2.2233,2.2218,2.2206,0,0,0,0,0,0,2.2255,2.2292,2.2318,2.2277,2.2285,2.2312,2.2286,2.2318,2.2315,2.2321,2.2362,2.2366,2.2328,2.2337,2.2368,2.2298,2.2344,2.2337,2.2293,2.2279,2.2268,2.2266,2.2429,0,0,0,0,0,2.2233,2.2221,2.2253,2.2214,2.2217,2.225,2.2246,2.2272,2.2281,2.2284,2.23,2.2306,2.2296,2.2288,2.2281,2.223,2.2235,2.2204,2.2193,2.2184,2.2177,2.2152,2.2139,2.228,2.228,2.228,0,0,2.2187,2.2205,2.2194,2.2198,2.2207,2.2193,2.2253,2.2234,2.2223,2.228,2.2252,2.2264,2.2274,2.2233,2.2215,2.2239,2.214,2.2177,2.2169,2.2168,2.2145,2.2132,2.212,2.2276,2.2277,2.2277,0,0,2.2094,2.2107,2.2077,2.2086,2.21,2.2123,2.2116,2.2139,2.215,2.2123,2.2166,2.2153,2.2135,2.214,2.214,2.2053,2.2084,2.2049,2.199,2.1966,2.1954,2.1945,2.1913,2.1902,2.2042,2.2042,2.2042,0,2.2034,2.2015,2.2056,2.2036,2.2036,2.2091,2.2059,2.2065,2.2075,2.2073,2.2101,2.2081,2.209,2.2052,2.2031,2.2029,2.2021,2.2046,2.1953,2.1944,2.1935,2.1906,2.1894,2.2038,2.2038,2.2039,2.2039,0,2.194,2.1926,2.19,2.1911,2.1908,2.1882,2.1918,2.191,2.1938,2.1958,2.1929,2.1944,2.1941,2.1934,2.1958,2.1899,2.1913,2.1946,2.1993,2.1917,2.189,2.1879,2.2031,2.2033,2.2034,2.2035,0,0,2.1795,2.1832,2.1821,2.1828,2.1849,2.1838,2.1815,2.1815,2.1807,2.1813,2.1793,2.1778,2.181,2.181,2.1836,2.1814,2.1744,2.185,2.1851,2.183,2.168,2.1654,2.164,2.1767,2.1765,2.1763,2.1679,0,2.1708,2.1672,2.1709,2.1664,2.1652,2.1705,2.1685,2.1695,2.1714,2.1705,2.1725,2.1714,2.1756,2.1757,2.1738,2.1757,2.1714,2.1764,2.1748,2.1747,2.1743,2.1626,2.1599,2.1518,2.1668,2.1667,2.1665,0,2.16,2.1604,2.1559,2.1585,2.1581,2.1562,2.1566,2.1557,2.157,2.1585,2.1586,2.162,2.1598,2.1645,2.1615,2.1647,2.1643,2.1652,2.165,2.1648,2.17,2.1621,2.1494,2.1481,2.1649,2.165,2.1652,0,2.1499,2.1492,2.1465,2.1469,2.1498,2.1484,2.1495,2.1511,2.1509,2.1511,2.151,2.1509,2.1508,2.1505,2.1537,2.1569,2.1503,2.1553,2.1514,2.1513,2.1496,2.1496,2.1365,2.1495,2.1495,2.1495,2.1495,0,2.1397,2.1367,2.1421,2.1403,2.1372,2.1415,2.1382,2.1398,2.1412,2.1398,2.1444,2.1429,2.1473,2.1463,2.1488,2.1459,2.1458,2.1469,2.1475,2.1464,2.1463,2.1461,2.1467,2.1492,2.1493,2.1493,2.1494,0,2.1277,2.1312,2.1286,2.1317,2.1325,2.13,2.1326,2.1311,2.1334,2.1316,2.1314,2.1349,2.134,2.1372,2.1368,2.1384,2.1342,2.1358,2.1338,2.1343,2.1302,2.1305,2.1164,2.1148,2.1288,2.1287,2.1286,0,2.1209,2.1188,2.1218,2.1214,2.1223,2.1215,2.1214,2.1256,2.1252,2.1267,2.125,2.1245,2.1244,2.1227,2.125,2.1248,2.1264,2.1215,2.1263,2.1253,2.1262,2.1263,2.1261,2.1204,2.1202,2.1201,2.12,0,2.1085,2.1104,2.1102,2.1106,2.1104,2.1109,2.1116,2.1109,2.1155,2.1148,2.1141,2.114,2.1138,2.1132,2.1135,2.1145,2.1179,2.1185,2.1175,2.1163,2.1152,2.1157,2.131,2.1187,2.1188,2.1189,2.119,2.119,2.099,2.0974,2.0993,2.0989,2.1,2.1007,2.0995,2.1017,2.1013,2.1015,2.104,2.1028,2.1042,2.105,2.1057,2.1048,2.107,2.1057,2.1053,2.1049,2.1042,2.1155,2.1048,2.1048,2.1049,2.1049,2.1049,0,2.0868,2.0883,2.088,2.089,2.0887,2.0923,2.0934,2.0928,2.0918,2.0929,2.0928,2.092,2.0916,2.094,2.0939,2.0927,2.0942,2.0925,2.0926,2.0927,2.1022,2.103,2.0912,2.0912,2.0912,2.0912,2.0912,2.0912,2.0804,2.0779,2.0801,2.0782,2.0798,2.0788,2.0791,2.0797,2.0807,2.0797,2.0794,2.0812,2.0828,2.0829,2.0826,2.0834,2.0831,2.0808,2.082,2.0907,2.0921,2.0933,2.0941,2.0807,2.0807,2.0727,2.0726,2.0725]}]]